| time (UTC) | temp F | wind direction | speed MPH | gust MPH | rain 1hr in | rain 24hr in | rain mn in | humidity % | barometer mb |
| 20260507205054 | 55 | 31 | 2.0 | 4.0 | 0.00 | 0.00 | 0.00 | 73 | 1016.5 |
| 20260507204554 | 55 | 5 | 1.0 | 4.0 | 0.00 | 0.00 | 0.00 | 72 | 1016.4 |
| 20260507204052 | 55 | 32 | 1.0 | 3.0 | 0.00 | 0.00 | 0.00 | 72 | 1016.4 |
| 20260507203557 | 55 | 5 | 1.0 | 5.0 | 0.00 | 0.00 | 0.00 | 71 | 1016.4 |
| 20260507203029 | 55 | 47 | 2.0 | 5.0 | 0.00 | 0.00 | 0.00 | 71 | 1016.3 |
| 20260507202551 | 56 | 22 | 1.0 | 4.0 | 0.00 | 0.00 | 0.00 | 71 | 1016.4 |
| 20260507202044 | 56 | 28 | 1.0 | 4.0 | 0.00 | 0.00 | 0.00 | 71 | 1016.4 |
| 20260507201609 | 56 | 341 | 1.0 | 3.0 | 0.00 | 0.00 | 0.00 | 72 | 1016.3 |
| 20260507201043 | 55 | 5 | 1.0 | 3.0 | 0.00 | 0.00 | 0.00 | 72 | 1016.3 |
| 20260507200547 | 56 | 27 | 1.0 | 3.0 | 0.00 | 0.00 | 0.00 | 71 | 1016.2 |
| 20260507200043 | 56 | 14 | 2.0 | 3.0 | 0.00 | 0.00 | 0.00 | 71 | 1016.1 |
| 20260507195603 | 56 | 355 | 2.0 | 4.0 | 0.00 | 0.00 | 0.00 | 71 | 1016.0 |
| 20260507195032 | 56 | 23 | 1.0 | 5.0 | 0.00 | 0.00 | 0.00 | 70 | 1016.0 |
| 20260507194530 | 56 | 40 | 2.0 | 5.0 | 0.00 | 0.00 | 0.00 | 70 | 1016.0 |
| 20260507194030 | 56 | 355 | 1.0 | 2.0 | 0.00 | 0.00 | 0.00 | 69 | 1016.0 |
| 20260507193555 | 56 | 39 | 1.0 | 2.0 | 0.00 | 0.00 | 0.00 | 69 | 1015.9 |
| 20260507193044 | 56 | 39 | 1.0 | 3.0 | 0.00 | 0.00 | 0.00 | 68 | 1015.9 |
| 20260507192544 | 56 | 28 | 1.0 | 3.0 | 0.00 | 0.00 | 0.00 | 67 | 1015.9 |
| 20260507192042 | 56 | 48 | 1.0 | 5.0 | 0.00 | 0.00 | 0.00 | 67 | 1015.8 |
| 20260507191537 | 57 | 69 | 3.0 | 5.0 | 0.00 | 0.00 | 0.00 | 66 | 1015.9 |
| 20260507191027 | 57 | 36 | 2.0 | 6.0 | 0.00 | 0.00 | 0.00 | 65 | 1015.8 |
| 20260507190535 | 57 | 13 | 1.0 | 6.0 | 0.00 | 0.00 | 0.00 | 64 | 1015.8 |
| 20260507190046 | 57 | 46 | 2.0 | 5.0 | 0.00 | 0.00 | 0.00 | 64 | 1015.8 |
| 20260507185554 | 57 | 78 | 2.0 | 5.0 | 0.00 | 0.00 | 0.00 | 63 | 1015.8 |
| 20260507185052 | 57 | 360 | 1.0 | 4.0 | 0.00 | 0.00 | 0.00 | 63 | 1015.8 |
| 20260507184539 | 58 | 61 | 1.0 | 4.0 | 0.00 | 0.00 | 0.00 | 62 | 1015.8 |
| 20260507184040 | 58 | 355 | 1.0 | 6.0 | 0.00 | 0.00 | 0.00 | 61 | 1015.8 |
| 20260507183605 | 58 | 11 | 2.0 | 6.0 | 0.00 | 0.00 | 0.00 | 60 | 1015.8 |
| 20260507183030 | 58 | 34 | 4.0 | 6.0 | 0.00 | 0.00 | 0.00 | 58 | 1015.8 |
| 20260507182600 | 58 | 10 | 2.0 | 7.0 | 0.00 | 0.00 | 0.00 | 58 | 1015.7 |
| 20260507182043 | 58 | 43 | 4.0 | 7.0 | 0.00 | 0.00 | 0.00 | 57 | 1015.6 |
| 20260507181603 | 58 | 10 | 2.0 | 4.0 | 0.00 | 0.00 | 0.00 | 58 | 1015.7 |
| 20260507181035 | 59 | 16 | 1.0 | 4.0 | 0.00 | 0.00 | 0.00 | 56 | 1015.6 |
| 20260507180534 | 59 | 19 | 1.0 | 6.0 | 0.00 | 0.00 | 0.00 | 56 | 1015.6 |
| 20260507175626 | 59 | 85 | 2.0 | 7.0 | 0.00 | 0.00 | 0.00 | 54 | 1015.6 |
| 20260507175037 | 59 | 26 | 4.0 | 7.0 | 0.00 | 0.00 | 0.00 | 53 | 1015.6 |
| 20260507174539 | 60 | 32 | 4.0 | 7.0 | 0.00 | 0.00 | 0.00 | 53 | 1015.5 |
| 20260507174026 | 60 | 28 | 2.0 | 7.0 | 0.00 | 0.00 | 0.00 | 52 | 1015.6 |
| 20260507173533 | 60 | 67 | 1.0 | 7.0 | 0.00 | 0.00 | 0.00 | 50 | 1015.6 |
| 20260507173026 | 60 | 78 | 4.0 | 8.0 | 0.00 | 0.00 | 0.00 | 49 | 1015.6 |
| 20260507172535 | 60 | 36 | 3.0 | 5.0 | 0.00 | 0.00 | 0.00 | 48 | 1015.6 |
| 20260507172032 | 61 | 355 | 3.0 | 5.0 | 0.00 | 0.00 | 0.00 | 48 | 1015.6 |
| 20260507171534 | 60 | 43 | 2.0 | 5.0 | 0.00 | 0.00 | 0.00 | 49 | 1015.5 |
| 20260507171023 | 60 | 53 | 2.0 | 5.0 | 0.00 | 0.00 | 0.00 | 48 | 1015.5 |
| 20260507170542 | 61 | 69 | 3.0 | 5.0 | 0.00 | 0.00 | 0.00 | 46 | 1015.5 |
| 20260507170035 | 61 | 14 | 1.0 | 5.0 | 0.00 | 0.00 | 0.00 | 44 | 1015.5 |
| 20260507165611 | 61 | 36 | 1.0 | 5.0 | 0.00 | 0.00 | 0.00 | 47 | 1015.5 |
| 20260507165040 | 61 | 29 | 1.0 | 3.0 | 0.00 | 0.00 | 0.00 | 45 | 1015.5 |
| 20260507164606 | 61 | 204 | 1.0 | 5.0 | 0.00 | 0.00 | 0.00 | 45 | 1015.5 |
| 20260507164035 | 61 | 53 | 1.0 | 8.0 | 0.00 | 0.00 | 0.00 | 47 | 1015.4 |
| 20260507163554 | 61 | 322 | 1.0 | 8.0 | 0.00 | 0.00 | 0.00 | 44 | 1015.4 |
| 20260507163102 | 61 | 22 | 3.0 | 7.0 | 0.00 | 0.00 | 0.00 | 46 | 1015.5 |
| 20260507162540 | 61 | 205 | 2.0 | 4.0 | 0.00 | 0.00 | 0.00 | 46 | 1015.4 |
| 20260507162035 | 61 | 314 | 1.0 | 7.0 | 0.00 | 0.00 | 0.00 | 49 | 1015.4 |
| 20260507161600 | 61 | 300 | 2.0 | 7.0 | 0.00 | 0.00 | 0.00 | 53 | 1015.4 |
| 20260507161025 | 61 | 307 | 2.0 | 7.0 | 0.00 | 0.00 | 0.00 | 53 | 1015.4 |
| 20260507160531 | 61 | 286 | 1.0 | 6.0 | 0.00 | 0.00 | 0.00 | 55 | 1015.4 |
| 20260507160043 | 62 | 331 | 1.0 | 6.0 | 0.00 | 0.00 | 0.00 | 54 | 1015.3 |
| 20260507155543 | 62 | 350 | 2.0 | 7.0 | 0.00 | 0.00 | 0.00 | 54 | 1015.4 |
| 20260507155055 | 62 | 311 | 3.0 | 7.0 | 0.00 | 0.00 | 0.00 | 55 | 1015.3 |
| 20260507154537 | 62 | 11 | 2.0 | 9.0 | 0.00 | 0.00 | 0.00 | 54 | 1015.3 |
| 20260507154056 | 62 | 319 | 2.0 | 7.0 | 0.00 | 0.00 | 0.00 | 52 | 1015.3 |
| 20260507153540 | 62 | 34 | 2.0 | 7.0 | 0.00 | 0.00 | 0.00 | 53 | 1015.3 |
| 20260507153028 | 62 | 223 | 2.0 | 8.0 | 0.00 | 0.00 | 0.00 | 52 | 1015.3 |
| 20260507152539 | 62 | 309 | 1.0 | 5.0 | 0.00 | 0.00 | 0.00 | 54 | 1015.3 |
| 20260507152037 | 63 | 292 | 2.0 | 6.0 | 0.00 | 0.00 | 0.00 | 51 | 1015.3 |
| 20260507151534 | 63 | 37 | 3.0 | 7.0 | 0.00 | 0.00 | 0.00 | 53 | 1015.2 |
| 20260507151039 | 62 | 216 | 2.0 | 7.0 | 0.00 | 0.00 | 0.00 | 56 | 1015.2 |
| 20260507150602 | 62 | 5 | 2.0 | 7.0 | 0.00 | 0.00 | 0.00 | 54 | 1015.2 |
| 20260507150101 | 62 | 275 | 2.0 | 7.0 | 0.00 | 0.00 | 0.00 | 55 | 1015.2 |
| 20260507145537 | 63 | 283 | 3.0 | 7.0 | 0.00 | 0.00 | 0.00 | 54 | 1015.2 |
| 20260507145031 | 64 | 325 | 2.0 | 7.0 | 0.00 | 0.00 | 0.00 | 55 | 1015.2 |
| 20260507144558 | 64 | 351 | 2.0 | 7.0 | 0.00 | 0.00 | 0.00 | 51 | 1015.2 |
| 20260507144026 | 64 | 340 | 2.0 | 6.0 | 0.00 | 0.00 | 0.00 | 53 | 1015.1 |
| 20260507143555 | 64 | 329 | 3.0 | 8.0 | 0.00 | 0.00 | 0.00 | 49 | 1015.2 |
| 20260507143035 | 64 | 9 | 2.0 | 9.0 | 0.00 | 0.00 | 0.00 | 50 | 1015.2 |
| 20260507142544 | 65 | 317 | 3.0 | 7.0 | 0.00 | 0.00 | 0.00 | 53 | 1015.2 |
| 20260507142105 | 64 | 313 | 3.0 | 10.0 | 0.00 | 0.00 | 0.00 | 53 | 1015.2 |
| 20260507141545 | 64 | 290 | 5.0 | 10.0 | 0.00 | 0.00 | 0.00 | 50 | 1015.3 |
| 20260507141025 | 63 | 23 | 2.0 | 7.0 | 0.00 | 0.00 | 0.00 | 51 | 1015.3 |
| 20260507140544 | 62 | 280 | 2.0 | 6.0 | 0.00 | 0.00 | 0.00 | 54 | 1015.4 |
| 20260507140050 | 62 | 334 | 2.0 | 7.0 | 0.00 | 0.00 | 0.00 | 55 | 1015.4 |
| 20260507135536 | 63 | 324 | 3.0 | 7.0 | 0.00 | 0.00 | 0.00 | 54 | 1015.5 |
| 20260507135035 | 65 | 304 | 2.0 | 7.0 | 0.00 | 0.00 | 0.00 | 42 | 1015.5 |
| 20260507134551 | 65 | 326 | 4.0 | 7.0 | 0.00 | 0.00 | 0.00 | 45 | 1015.5 |
| 20260507134054 | 64 | 305 | 2.0 | 4.0 | 0.00 | 0.00 | 0.00 | 47 | 1015.5 |
| 20260507133544 | 63 | 290 | 2.0 | 8.0 | 0.00 | 0.00 | 0.00 | 49 | 1015.5 |
| 20260507133041 | 64 | 347 | 3.0 | 8.0 | 0.00 | 0.00 | 0.00 | 44 | 1015.5 |
| 20260507132556 | 63 | 306 | 2.0 | 4.0 | 0.00 | 0.00 | 0.00 | 51 | 1015.4 |
| 20260507132056 | 63 | 360 | 3.0 | 4.0 | 0.00 | 0.00 | 0.00 | 49 | 1015.5 |
| 20260507131549 | 62 | 298 | 1.0 | 5.0 | 0.00 | 0.00 | 0.00 | 47 | 1015.5 |
| 20260507131040 | 63 | 355 | 2.0 | 7.0 | 0.00 | 0.00 | 0.00 | 44 | 1015.5 |
| 20260507130538 | 66 | 271 | 2.0 | 7.0 | 0.00 | 0.00 | 0.00 | 42 | 1015.4 |
| 20260507130043 | 67 | 63 | 2.0 | 4.0 | 0.00 | 0.00 | 0.00 | 41 | 1015.4 |
| 20260507125543 | 64 | 219 | 2.0 | 5.0 | 0.00 | 0.00 | 0.00 | 37 | 1015.4 |
| 20260507125046 | 65 | 74 | 1.0 | 3.0 | 0.00 | 0.00 | 0.00 | 39 | 1015.4 |
| 20260507124556 | 63 | 321 | 1.0 | 8.0 | 0.00 | 0.00 | 0.00 | 44 | 1015.4 |
| 20260507124043 | 66 | 289 | 2.0 | 9.0 | 0.00 | 0.00 | 0.00 | 39 | 1015.4 |
| 20260507123543 | 66 | 355 | 4.0 | 9.0 | 0.00 | 0.00 | 0.00 | 40 | 1015.4 |
| 20260507123053 | 66 | 19 | 3.0 | 6.0 | 0.00 | 0.00 | 0.00 | 40 | 1015.4 |
| 20260507122541 | 67 | 90 | 1.0 | 6.0 | 0.00 | 0.00 | 0.00 | 40 | 1015.4 |
| 20260507122100 | 66 | 81 | 2.0 | 5.0 | 0.00 | 0.00 | 0.00 | 38 | 1015.4 |
| 20260507121558 | 65 | 331 | 2.0 | 7.0 | 0.00 | 0.00 | 0.00 | 37 | 1015.3 |
| 20260507121042 | 66 | 318 | 1.0 | 8.0 | 0.00 | 0.00 | 0.00 | 41 | 1015.4 |
| 20260507120535 | 66 | 65 | 3.0 | 8.0 | 0.00 | 0.00 | 0.00 | 42 | 1015.4 |
| 20260507120100 | 66 | 26 | 3.0 | 7.0 | 0.00 | 0.00 | 0.00 | 41 | 1015.4 |
| 20260507115549 | 66 | 348 | 2.0 | 7.0 | 0.00 | 0.00 | 0.00 | 42 | 1015.4 |
| 20260507115027 | 65 | 45 | 3.0 | 8.0 | 0.00 | 0.00 | 0.00 | 44 | 1015.5 |
| 20260507114537 | 66 | 88 | 2.0 | 5.0 | 0.00 | 0.00 | 0.00 | 41 | 1015.4 |
| 20260507114032 | 66 | 335 | 2.0 | 7.0 | 0.00 | 0.00 | 0.00 | 42 | 1015.5 |
| 20260507113539 | 66 | 323 | 3.0 | 7.0 | 0.00 | 0.00 | 0.00 | 41 | 1015.5 |
| 20260507113023 | 65 | 34 | 3.0 | 7.0 | 0.00 | 0.00 | 0.00 | 43 | 1015.5 |
| 20260507112549 | 65 | 101 | 2.0 | 7.0 | 0.00 | 0.00 | 0.00 | 43 | 1015.5 |
| 20260507112104 | 66 | 20 | 2.0 | 7.0 | 0.00 | 0.00 | 0.00 | 42 | 1015.5 |
| 20260507111555 | 65 | 36 | 3.0 | 10.0 | 0.00 | 0.00 | 0.00 | 39 | 1015.6 |
| 20260507111041 | 65 | 316 | 3.0 | 10.0 | 0.00 | 0.00 | 0.00 | 42 | 1015.6 |
| 20260507110557 | 64 | 43 | 2.0 | 7.0 | 0.00 | 0.00 | 0.00 | 40 | 1015.6 |
| 20260507110036 | 64 | 183 | 1.0 | 4.0 | 0.00 | 0.00 | 0.00 | 46 | 1015.6 |
| 20260507105605 | 64 | 176 | 2.0 | 6.0 | 0.00 | 0.00 | 0.00 | 47 | 1015.6 |
| 20260507105029 | 64 | 14 | 2.0 | 10.0 | 0.00 | 0.00 | 0.00 | 47 | 1015.6 |
| 20260507104600 | 64 | 65 | 3.0 | 10.0 | 0.00 | 0.00 | 0.00 | 49 | 1015.7 |
| 20260507104051 | 63 | 360 | 3.0 | 8.0 | 0.00 | 0.00 | 0.00 | 50 | 1015.7 |
| 20260507103536 | 64 | 329 | 1.0 | 8.0 | 0.00 | 0.00 | 0.00 | 49 | 1015.7 |
| 20260507103044 | 65 | 5 | 4.0 | 7.0 | 0.00 | 0.00 | 0.00 | 50 | 1015.7 |
| 20260507102549 | 63 | 36 | 3.0 | 8.0 | 0.00 | 0.00 | 0.00 | 47 | 1015.7 |
| 20260507102035 | 64 | 96 | 4.0 | 8.0 | 0.00 | 0.00 | 0.00 | 51 | 1015.7 |
| 20260507101534 | 62 | 5 | 2.0 | 8.0 | 0.00 | 0.00 | 0.00 | 53 | 1015.6 |
| 20260507101116 | 63 | 10 | 3.0 | 8.0 | 0.00 | 0.00 | 0.00 | 50 | 1015.7 |
| 20260507100601 | 62 | 36 | 2.0 | 7.0 | 0.00 | 0.00 | 0.00 | 53 | 1015.7 |
| 20260507100032 | 62 | 16 | 3.0 | 7.0 | 0.00 | 0.00 | 0.00 | 53 | 1015.7 |
| 20260507095540 | 62 | 5 | 3.0 | 7.0 | 0.00 | 0.00 | 0.00 | 54 | 1015.6 |
| 20260507095027 | 62 | 350 | 2.0 | 6.0 | 0.00 | 0.00 | 0.00 | 53 | 1015.6 |
| 20260507094536 | 61 | 5 | 2.0 | 5.0 | 0.00 | 0.00 | 0.00 | 58 | 1015.6 |
| 20260507094029 | 61 | 176 | 2.0 | 8.0 | 0.00 | 0.00 | 0.00 | 56 | 1015.5 |
| 20260507093553 | 61 | 78 | 1.0 | 8.0 | 0.00 | 0.00 | 0.00 | 59 | 1015.5 |
| 20260507093042 | 61 | 41 | 2.0 | 6.0 | 0.00 | 0.00 | 0.00 | 59 | 1015.5 |
| 20260507092544 | 60 | 296 | 2.0 | 5.0 | 0.00 | 0.00 | 0.00 | 61 | 1015.4 |
| 20260507092040 | 60 | 41 | 2.0 | 5.0 | 0.00 | 0.00 | 0.00 | 60 | 1015.4 |
| 20260507091546 | 59 | 59 | 3.0 | 5.0 | 0.00 | 0.00 | 0.00 | 62 | 1015.4 |
| 20260507091035 | 59 | 18 | 2.0 | 7.0 | 0.00 | 0.00 | 0.00 | 61 | 1015.4 |
| 20260507090604 | 59 | 55 | 2.0 | 7.0 | 0.00 | 0.00 | 0.00 | 61 | 1015.3 |
| 20260507090041 | 58 | 23 | 4.0 | 8.0 | 0.00 | 0.00 | 0.00 | 64 | 1015.4 |
| 20260507085534 | 58 | 360 | 3.0 | 8.0 | 0.00 | 0.00 | 0.00 | 64 | 1015.3 |
| 20260507085040 | 58 | 338 | 2.0 | 6.0 | 0.00 | 0.00 | 0.00 | 66 | 1015.3 |
| 20260507084555 | 56 | 67 | 2.0 | 6.0 | 0.00 | 0.00 | 0.00 | 70 | 1015.3 |
| 20260507084024 | 55 | 25 | 2.0 | 5.0 | 0.00 | 0.00 | 0.00 | 70 | 1015.3 |
| 20260507083541 | 55 | 166 | 2.0 | 5.0 | 0.00 | 0.00 | 0.00 | 71 | 1015.3 |
| 20260507083045 | 55 | 305 | 2.0 | 7.0 | 0.00 | 0.00 | 0.00 | 70 | 1015.3 |
| 20260507082549 | 54 | 42 | 3.0 | 7.0 | 0.00 | 0.00 | 0.00 | 72 | 1015.4 |
| 20260507082036 | 54 | 34 | 1.0 | 7.0 | 0.00 | 0.00 | 0.00 | 73 | 1015.4 |
| 20260507081621 | 53 | 21 | 3.0 | 7.0 | 0.00 | 0.00 | 0.00 | 74 | 1015.4 |
| 20260507081038 | 53 | 342 | 2.0 | 6.0 | 0.00 | 0.00 | 0.00 | 74 | 1015.4 |
| 20260507080531 | 53 | 22 | 3.0 | 7.0 | 0.00 | 0.00 | 0.00 | 74 | 1015.3 |
| 20260507080057 | 53 | 22 | 3.0 | 7.0 | 0.00 | 0.00 | 0.00 | 74 | 1015.3 |
| 20260507075536 | 53 | 36 | 4.0 | 10.0 | 0.00 | 0.00 | 0.00 | 75 | 1015.3 |
| 20260507075040 | 52 | 329 | 4.0 | 10.0 | 0.00 | 0.00 | 0.00 | 76 | 1015.2 |
| 20260507074535 | 52 | 329 | 3.0 | 6.0 | 0.00 | 0.00 | 0.00 | 76 | 1015.3 |
| 20260507074054 | 52 | 43 | 3.0 | 7.0 | 0.00 | 0.00 | 0.00 | 78 | 1015.3 |
| 20260507073530 | 51 | 12 | 2.0 | 7.0 | 0.00 | 0.00 | 0.00 | 79 | 1015.3 |
| 20260507073039 | 51 | 31 | 4.0 | 7.0 | 0.00 | 0.00 | 0.00 | 79 | 1015.2 |
| 20260507072531 | 51 | 322 | 4.0 | 7.0 | 0.00 | 0.00 | 0.00 | 81 | 1015.2 |
| 20260507072053 | 51 | 9 | 2.0 | 7.0 | 0.00 | 0.00 | 0.00 | 81 | 1015.2 |
| 20260507071543 | 50 | 360 | 3.0 | 7.0 | 0.00 | 0.00 | 0.00 | 82 | 1015.2 |
| 20260507071031 | 50 | 5 | 3.0 | 6.0 | 0.00 | 0.00 | 0.00 | 83 | 1015.1 |
| 20260507070604 | 50 | 36 | 1.0 | 6.0 | 0.00 | 0.00 | 0.00 | 82 | 1015.1 |
| 20260507070056 | 49 | 42 | 3.0 | 9.0 | 0.00 | 0.00 | 0.00 | 83 | 1015.2 |
| 20260507065552 | 49 | 21 | 3.0 | 9.0 | 0.00 | 0.00 | 0.00 | 83 | 1015.1 |
| 20260507065032 | 49 | 36 | 3.0 | 6.0 | 0.00 | 0.00 | 0.00 | 85 | 1015.1 |
| 20260507064613 | 49 | 348 | 3.0 | 6.0 | 0.00 | 0.00 | 0.00 | 86 | 1015.0 |
| 20260507064048 | 48 | 337 | 4.0 | 6.0 | 0.00 | 0.00 | 0.00 | 88 | 1015.0 |
| 20260507063552 | 48 | 14 | 3.0 | 6.0 | 0.00 | 0.00 | 0.00 | 89 | 1015.0 |
| 20260507063038 | 47 | 336 | 1.0 | 4.0 | 0.00 | 0.00 | 0.00 | 90 | 1015.1 |
| 20260507062540 | 47 | 344 | 2.0 | 4.0 | 0.00 | 0.00 | 0.00 | 90 | 1015.0 |
| 20260507062030 | 47 | 284 | 0.0 | 4.0 | 0.00 | 0.00 | 0.00 | 91 | 1015.0 |
| 20260507061539 | 46 | 317 | 1.0 | 4.0 | 0.00 | 0.00 | 0.00 | 91 | 1015.0 |
| 20260507061051 | 46 | 355 | 2.0 | 4.0 | 0.00 | 0.00 | 0.00 | 92 | 1014.9 |
| 20260507060542 | 45 | 347 | 1.0 | 3.0 | 0.00 | 0.00 | 0.00 | 92 | 1014.9 |
| 20260507060037 | 45 | 344 | 1.0 | 3.0 | 0.00 | 0.00 | 0.00 | 92 | 1014.9 |
| 20260507055545 | 45 | 319 | 1.0 | 2.0 | 0.00 | 0.00 | 0.00 | 92 | 1014.8 |
| 20260507055050 | 45 | 315 | 0.0 | 2.0 | 0.00 | 0.00 | 0.00 | 93 | 1014.8 |
| 20260507054550 | 45 | 351 | 0.0 | 3.0 | 0.00 | 0.00 | 0.00 | 93 | 1014.8 |
| 20260507054039 | 44 | 332 | 1.0 | 2.0 | 0.00 | 0.00 | 0.00 | 93 | 1014.7 |
| 20260507053544 | 44 | 342 | 0.0 | 2.0 | 0.00 | 0.00 | 0.00 | 93 | 1014.7 |
| 20260507053052 | 44 | 342 | 0.0 | 2.0 | 0.00 | 0.00 | 0.00 | 93 | 1014.7 |
| 20260507052549 | 44 | 343 | 0.0 | 2.0 | 0.00 | 0.00 | 0.00 | 93 | 1014.6 |
| 20260507052024 | 44 | 342 | 1.0 | 2.0 | 0.00 | 0.00 | 0.00 | 93 | 1014.6 |
| 20260507051555 | 43 | 342 | 0.0 | 1.0 | 0.00 | 0.00 | 0.00 | 93 | 1014.5 |
| 20260507051046 | 43 | 342 | 0.0 | 1.0 | 0.00 | 0.00 | 0.00 | 93 | 1014.5 |
| 20260507050602 | 43 | 342 | 0.0 | 0.0 | 0.00 | 0.00 | 0.00 | 93 | 1014.5 |
| 20260507045533 | 43 | 342 | 0.0 | 1.0 | 0.00 | 0.00 | 0.00 | 93 | 1014.3 |
| 20260507045034 | 43 | 343 | 0.0 | 1.0 | 0.00 | 0.00 | 0.00 | 93 | 1014.2 |
| 20260507044601 | 43 | 342 | 0.0 | 1.0 | 0.00 | 0.00 | 0.00 | 93 | 1014.2 |
| 20260507044030 | 43 | 342 | 0.0 | 2.0 | 0.00 | 0.00 | 0.00 | 93 | 1014.2 |
| 20260507043533 | 43 | 343 | 0.0 | 0.0 | 0.00 | 0.00 | 0.00 | 93 | 1014.1 |
| 20260507043031 | 43 | 343 | 0.0 | 1.0 | 0.00 | 0.00 | 0.00 | 93 | 1014.1 |
| 20260507042550 | 43 | 342 | 0.0 | 2.0 | 0.00 | 0.00 | 0.00 | 93 | 1014.1 |
| 20260507042029 | 43 | 343 | 0.0 | 2.0 | 0.00 | 0.00 | 0.00 | 93 | 1014.0 |
| 20260507041533 | 43 | 343 | 0.0 | 1.0 | 0.00 | 0.00 | 0.00 | 93 | 1014.0 |
| 20260507041038 | 43 | 343 | 0.0 | 2.0 | 0.00 | 0.00 | 0.00 | 93 | 1014.0 |
| 20260507040541 | 43 | 336 | 0.0 | 2.0 | 0.00 | 0.00 | 0.00 | 93 | 1013.9 |
| 20260507040039 | 42 | 304 | 0.0 | 2.0 | 0.00 | 0.00 | 0.00 | 93 | 1013.9 |
| 20260507035539 | 42 | 333 | 0.0 | 0.0 | 0.00 | 0.00 | 0.00 | 93 | 1013.8 |
| 20260507035032 | 42 | 333 | 0.0 | 1.0 | 0.00 | 0.00 | 0.00 | 93 | 1013.9 |
| 20260507034535 | 42 | 333 | 0.0 | 1.0 | 0.00 | 0.00 | 0.00 | 93 | 1013.8 |
| 20260507034033 | 42 | 333 | 0.0 | 0.0 | 0.00 | 0.00 | 0.00 | 93 | 1013.8 |
| 20260507033548 | 42 | 333 | 0.0 | 1.0 | 0.00 | 0.00 | 0.00 | 93 | 1013.8 |
| 20260507033044 | 42 | 333 | 0.0 | 1.0 | 0.00 | 0.00 | 0.00 | 93 | 1013.7 |
| 20260507032531 | 42 | 333 | 0.0 | 0.0 | 0.00 | 0.00 | 0.00 | 92 | 1013.7 |
| 20260507032030 | 42 | 333 | 0.0 | 0.0 | 0.00 | 0.00 | 0.00 | 92 | 1013.7 |
| 20260507031605 | 42 | 333 | 0.0 | 0.0 | 0.00 | 0.00 | 0.00 | 92 | 1013.7 |
| 20260507031056 | 42 | 333 | 0.0 | 1.0 | 0.00 | 0.00 | 0.00 | 92 | 1013.7 |
| 20260507030601 | 43 | 333 | 0.0 | 2.0 | 0.00 | 0.00 | 0.00 | 92 | 1013.7 |
| 20260507030034 | 43 | 347 | 0.0 | 2.0 | 0.00 | 0.00 | 0.00 | 92 | 1013.7 |
| 20260507025541 | 43 | 332 | 0.0 | 1.0 | 0.00 | 0.00 | 0.00 | 92 | 1013.6 |
| 20260507025046 | 43 | 332 | 0.0 | 1.0 | 0.00 | 0.00 | 0.00 | 92 | 1013.6 |
| 20260507024554 | 43 | 332 | 0.0 | 1.0 | 0.00 | 0.00 | 0.00 | 92 | 1013.6 |
| 20260507024029 | 43 | 338 | 0.0 | 2.0 | 0.00 | 0.00 | 0.00 | 92 | 1013.5 |
| 20260507023603 | 43 | 317 | 0.0 | 2.0 | 0.00 | 0.00 | 0.00 | 92 | 1013.5 |
| 20260507023044 | 43 | 355 | 0.0 | 0.0 | 0.00 | 0.00 | 0.00 | 92 | 1013.5 |
| 20260507022551 | 43 | 355 | 0.0 | 2.0 | 0.00 | 0.00 | 0.00 | 92 | 1013.4 |
| 20260507022045 | 43 | 355 | 0.0 | 2.0 | 0.00 | 0.00 | 0.00 | 92 | 1013.4 |
| 20260507021557 | 43 | 355 | 0.0 | 1.0 | 0.00 | 0.00 | 0.00 | 92 | 1013.4 |
| 20260507021032 | 43 | 355 | 0.0 | 0.0 | 0.00 | 0.00 | 0.00 | 91 | 1013.4 |
| 20260507020548 | 43 | 355 | 0.0 | 0.0 | 0.00 | 0.00 | 0.00 | 91 | 1013.3 |
| 20260507020025 | 43 | 355 | 0.0 | 2.0 | 0.00 | 0.00 | 0.00 | 91 | 1013.3 |
| 20260507015548 | 43 | 355 | 0.0 | 2.0 | 0.00 | 0.00 | 0.00 | 91 | 1013.3 |
| 20260507015028 | 43 | 355 | 0.0 | 1.0 | 0.00 | 0.00 | 0.00 | 91 | 1013.2 |
| 20260507014551 | 44 | 355 | 0.0 | 1.0 | 0.00 | 0.00 | 0.00 | 91 | 1013.2 |
| 20260507014058 | 44 | 355 | 0.0 | 2.0 | 0.00 | 0.00 | 0.00 | 90 | 1013.2 |
| 20260507013532 | 44 | 336 | 0.0 | 1.0 | 0.00 | 0.00 | 0.00 | 91 | 1013.2 |
| 20260507013040 | 44 | 319 | 0.0 | 3.0 | 0.00 | 0.00 | 0.00 | 90 | 1013.2 |
| 20260507012544 | 44 | 5 | 1.0 | 3.0 | 0.00 | 0.00 | 0.00 | 90 | 1013.2 |
| 20260507012031 | 44 | 355 | 1.0 | 2.0 | 0.00 | 0.00 | 0.00 | 90 | 1013.1 |
| 20260507011551 | 44 | 355 | 0.0 | 2.0 | 0.00 | 0.00 | 0.00 | 90 | 1013.1 |
| 20260507011109 | 44 | 331 | 0.0 | 2.0 | 0.00 | 0.00 | 0.00 | 90 | 1013.1 |
| 20260507010550 | 45 | 329 | 1.0 | 2.0 | 0.00 | 0.00 | 0.00 | 90 | 1013.1 |
| 20260507010111 | 45 | 338 | 1.0 | 2.0 | 0.00 | 0.00 | 0.00 | 89 | 1013.1 |
| 20260507005550 | 45 | 355 | 1.0 | 2.0 | 0.00 | 0.00 | 0.00 | 89 | 1013.1 |
| 20260507005025 | 45 | 320 | 1.0 | 3.0 | 0.00 | 0.00 | 0.00 | 89 | 1013.1 |
| 20260507004543 | 45 | 320 | 1.0 | 3.0 | 0.00 | 0.00 | 0.00 | 89 | 1013.1 |
| 20260507004021 | 45 | 360 | 1.0 | 3.0 | 0.00 | 0.00 | 0.00 | 89 | 1013.0 |
| 20260507003544 | 45 | 350 | 1.0 | 3.0 | 0.00 | 0.00 | 0.00 | 88 | 1013.0 |
| 20260507003037 | 45 | 355 | 2.0 | 3.0 | 0.00 | 0.00 | 0.00 | 88 | 1013.0 |
| 20260507002543 | 45 | 332 | 1.0 | 3.0 | 0.00 | 0.00 | 0.00 | 88 | 1012.9 |
| 20260507002037 | 46 | 5 | 1.0 | 2.0 | 0.00 | 0.00 | 0.00 | 88 | 1012.9 |
| 20260507001604 | 46 | 24 | 0.0 | 3.0 | 0.00 | 0.00 | 0.00 | 87 | 1012.9 |
| 20260507001040 | 46 | 360 | 1.0 | 3.0 | 0.00 | 0.00 | 0.00 | 87 | 1012.8 |
| 20260507000544 | 46 | 5 | 1.0 | 5.0 | 0.00 | 0.00 | 0.00 | 87 | 1012.9 |
| 20260507000042 | 46 | 335 | 2.0 | 5.0 | 0.00 | 0.00 | 0.00 | 86 | 1012.8 |
| 20260506235538 | 46 | 5 | 1.0 | 4.0 | 0.00 | 0.00 | 0.00 | 86 | 1012.8 |
| 20260506235107 | 47 | 49 | 2.0 | 5.0 | 0.00 | 0.00 | 0.00 | 86 | 1012.8 |
| 20260506234601 | 47 | 355 | 2.0 | 5.0 | 0.00 | 0.00 | 0.00 | 85 | 1012.8 |
| 20260506234056 | 47 | 5 | 2.0 | 4.0 | 0.00 | 0.00 | 0.00 | 85 | 1012.8 |
| 20260506233551 | 47 | 5 | 2.0 | 4.0 | 0.00 | 0.00 | 0.00 | 84 | 1012.7 |
| 20260506233047 | 47 | 5 | 1.0 | 4.0 | 0.00 | 0.00 | 0.00 | 84 | 1012.7 |
| 20260506232537 | 48 | 5 | 2.0 | 4.0 | 0.00 | 0.00 | 0.00 | 83 | 1012.7 |
| 20260506232052 | 48 | 9 | 2.0 | 5.0 | 0.00 | 0.00 | 0.00 | 83 | 1012.6 |
| 20260506231540 | 48 | 23 | 3.0 | 5.0 | 0.00 | 0.00 | 0.00 | 82 | 1012.7 |
| 20260506231040 | 48 | 12 | 1.0 | 6.0 | 0.00 | 0.00 | 0.00 | 82 | 1012.7 |
| 20260506230544 | 49 | 9 | 3.0 | 6.0 | 0.00 | 0.00 | 0.00 | 81 | 1012.7 |
| 20260506230030 | 49 | 44 | 2.0 | 7.0 | 0.00 | 0.00 | 0.00 | 81 | 1012.6 |
| 20260506225539 | 49 | 39 | 3.0 | 7.0 | 0.00 | 0.00 | 0.00 | 80 | 1012.6 |
| 20260506225029 | 49 | 19 | 4.0 | 7.0 | 0.00 | 0.00 | 0.00 | 79 | 1012.6 |
| 20260506224611 | 50 | 333 | 3.0 | 6.0 | 0.00 | 0.00 | 0.00 | 79 | 1012.6 |
| 20260506224044 | 50 | 33 | 2.0 | 7.0 | 0.00 | 0.00 | 0.00 | 78 | 1012.5 |
| 20260506223540 | 50 | 344 | 2.0 | 7.0 | 0.00 | 0.00 | 0.00 | 78 | 1012.5 |
| 20260506223111 | 50 | 5 | 2.0 | 7.0 | 0.00 | 0.00 | 0.00 | 77 | 1012.5 |
| 20260506222538 | 50 | 331 | 3.0 | 7.0 | 0.00 | 0.00 | 0.00 | 76 | 1012.5 |
| 20260506222049 | 51 | 15 | 4.0 | 7.0 | 0.00 | 0.00 | 0.00 | 75 | 1012.5 |
| 20260506221537 | 51 | 74 | 3.0 | 9.0 | 0.00 | 0.00 | 0.00 | 75 | 1012.4 |
| 20260506221031 | 51 | 37 | 3.0 | 9.0 | 0.00 | 0.00 | 0.00 | 74 | 1012.4 |
| 20260506220538 | 51 | 360 | 4.0 | 8.0 | 0.00 | 0.00 | 0.00 | 74 | 1012.4 |
| 20260506220025 | 51 | 337 | 3.0 | 8.0 | 0.00 | 0.00 | 0.00 | 74 | 1012.3 |
| 20260506215529 | 51 | 5 | 3.0 | 8.0 | 0.00 | 0.00 | 0.00 | 74 | 1012.3 |
| 20260506215035 | 52 | 11 | 4.0 | 8.0 | 0.00 | 0.00 | 0.00 | 74 | 1012.3 |
| 20260506214552 | 52 | 338 | 3.0 | 7.0 | 0.00 | 0.00 | 0.00 | 74 | 1012.2 |
| 20260506214034 | 52 | 30 | 4.0 | 7.0 | 0.00 | 0.00 | 0.00 | 73 | 1012.1 |
| 20260506213539 | 52 | 22 | 3.0 | 7.0 | 0.00 | 0.00 | 0.00 | 73 | 1012.1 |
| 20260506213027 | 52 | 22 | 4.0 | 7.0 | 0.00 | 0.00 | 0.00 | 73 | 1012.2 |
| 20260506212540 | 52 | 360 | 4.0 | 7.0 | 0.00 | 0.00 | 0.00 | 73 | 1012.1 |
| 20260506212033 | 52 | 355 | 3.0 | 7.0 | 0.00 | 0.00 | 0.00 | 72 | 1012.1 |
| 20260506211543 | 52 | 339 | 2.0 | 6.0 | 0.00 | 0.00 | 0.00 | 72 | 1012.0 |
| 20260506211036 | 52 | 65 | 3.0 | 6.0 | 0.00 | 0.00 | 0.00 | 72 | 1011.9 |
| 20260506210549 | 52 | 327 | 3.0 | 6.0 | 0.00 | 0.00 | 0.00 | 72 | 1011.9 |
| 20260506210054 | 52 | 355 | 3.0 | 6.0 | 0.00 | 0.00 | 0.00 | 71 | 1011.9 |
| 20260506205548 | 53 | 18 | 3.0 | 6.0 | 0.00 | 0.00 | 0.00 | 71 | 1011.9 |